Location: Chrząstowo
(52.0654°N, 17.1290°E)
Time: 12:48:22
(UTC+01:00)

Envisat - Pass Details

Date: 17 December 2019
Orbit: 764 x 766 km, 98.1° (Epoch: 27 January)

Event Time Altitude Azimuth Distance (km) Brightness Sun altitude
Rises 19:18:30 0° 219° (SW) 3,226 6.7 -32.1°
Reaches altitude 10° 19:22:01 10° 245° (WSW) 2,306 6.1 -32.6°
Maximum altitude 19:24:34 14° 275° (W) 2,057 6.0 -33.0°
Drops below altitude 10° 19:27:08 10° 306° (NW) 2,315 6.1 -33.4°
Sets 19:30:41 0° 332° (NNW) 3,247 6.6 -33.9°
